RH
87 86 85 83 81 80 80 79 77 75 72 70 70 68 68 70 69 66 62 58 56 53 52 51 50 52 53 54 59 66 69 72 74 75 76 78 80 79 77 79 79 78 80 83 83 80 74 68 64 60 59 60 57 53 51 52 54 62 74 84 86 83 80 83 83 80 83 90 93 95 95 94 93 93 92 93 92 90 90 87 83 81 81 82 83
92 92 91 89 86 84 82 80 77 74 71 71 73 73 73 73 71 68 65 61 58 54 52 51 51 51 52 55 62 68 69 72 75 76 77 80 81 81 82 81 80 82 85 87 88 86 80 73 69 67 66 64 60 56 53 52 52 53 61 72 83 86 83 81 80 78 79 83 85 90 95 96 95 93 92 93 92 91 91 90 86 84 83 83 84
95 94 93 91 89 86 84 82 79 76 74 73 74 72 70 70 69 67 66 65 63 58 53 50 50 51 53 58 64 68 70 74 78 79 80 81 83 84 85 84 84 86 88 90 92 92 88 82 75 72 72 68 62 58 55 54 54 52 53 59 70 78 83 83 80 76 75 79 80 83 87 92 95 95 94 93 93 91 91 89 86 84 82 80 81
95 94 92 90 88 86 84 81 80 79 77 76 75 73 70 69 70 69 70 71 71 67 60 55 54 55 58 61 64 68 72 76 79 81 82 83 85 87 88 88 87 89 91 92 94 96 94 90 84 80 78 73 66 60 57 55 53 52 51 53 59 66 73 79 82 77 74 76 79 81 84 88 89 91 92 91 91 90 88 85 80 75 74 77 80
95 93 91 89 87 85 83 81 80 79 79 79 78 77 75 74 73 74 75 76 77 74 70 65 63 63 62 63 66 69 73 77 79 80 82 85 87 89 91 90 89 90 92 93 95 97 97 94 91 89 86 78 69 63 59 56 54 53 52 51 53 58 63 68 74 78 77 76 77 79 85 91 91 91 93 93 92 91 90 87 82 75 70 71 76
95 92 90 88 86 84 83 82 82 82 81 81 81 81 81 79 77 78 76 75 76 78 76 74 70 67 65 65 68 71 74 77 78 80 82 85 87 91 93 92 91 90 92 95 97 98 99 97 95 94 91 83 72 65 63 60 58 58 55 51 50 53 57 61 65 71 75 77 76 76 80 88 93 94 95 95 94 94 93 92 91 86 79 71 70
95 94 91 89 88 87 86 87 88 89 89 87 85 84 84 85 84 84 80 75 75 79 79 75 71 67 65 65 67 70 74 75 76 79 82 83 86 91 93 92 93 91 91 95 98 98 99 98 97 94 91 86 78 72 68 64 61 60 58 56 54 52 53 57 61 65 71 75 77 75 73 78 88 93 95 96 96 95 94 93 90 88 86 81 74
97 96 94 93 94 91 90 92 94 95 96 96 94 90 88 88 89 89 87 81 77 77 75 71 67 63 61 63 66 69 71 72 73 76 80 81 84 89 92 94 95 94 92 94 96 96 96 97 97 95 92 89 85 80 75 69 66 65 63 61 60 56 53 56 61 64 68 72 76 76 72 72 78 84 90 95 97 94 91 89 87 85 85 86 82
98 97 97 97 97 96 96 97 97 97 97 99 101 98 94 92 90 90 90 86 82 78 75 71 68 64 61 61 63 66 67 68 70 73 76 78 82 87 92 94 96 96 95 95 94 91 90 91 93 95 94 91 87 84 80 75 72 71 68 66 65 61 57 59 64 66 67 69 73 75 75 74 73 74 78 85 89 91 92 92 92 91 88 88 86
99 99 99 98 98 99 99 99 99 99 99 100 101 101 100 98 97 95 94 92 90 85 81 78 75 72 70 66 63 63 65 68 71 72 73 76 80 86 91 93 95 95 95 96 96 92 88 88 91 95 94 91 88 86 84 80 77 73 70 69 68 65 60 60 63 66 67 68 70 72 73 73 72 69 68 71 78 87 93 96 96 96 93 89 86
99 99 99 99 99 100 100 100 100 100 100 100 100 100 101 101 101 100 98 98 97 93 90 86 84 81 79 77 73 69 69 71 73 73 73 76 80 85 89 91 91 91 92 95 97 97 93 90 91 93 94 94 92 90 87 81 78 77 75 73 71 68 65 62 62 65 68 68 69 70 72 73 72 69 65 66 74 83 90 94 96 97 96 92 85
100 99 99 99 99 100 101 101 100 100 100 100 100 100 100 100 101 101 100 100 99 98 96 94 92 90 88 88 86 83 81 81 80 79 78 79 82 84 87 87 87 87 90 93 97 99 97 95 94 94 94 94 93 90 87 82 78 78 78 78 77 75 71 68 66 67 71 73 71 70 73 77 77 74 70 68 72 81 86 91 95 95 95 94 88
99 99 99 100 99 100 100 101 100 100 100 100 100 100 100 100 100 100 100 101 101 100 99 99 98 98 97 97 96 94 92 91 90 89 88 87 87 88 87 86 84 84 87 90 95 97 95 94 95 95 92 91 89 88 87 84 81 79 80 81 81 79 77 77 74 73 76 79 79 74 74 78 81 79 78 77 78 82 84 87 90 89 89 91 89
98 99 100 101 101 100 100 101 101 100 100 100 100 100 100 101 101 101 101 101 101 101 101 101 101 101 100 101 100 99 98 96 95 95 94 93 92 93 92 89 84 81 83 86 91 94 94 92 92 91 90 88 86 84 85 85 84 82 81 82 83 81 81 81 80 79 80 83 83 79 76 78 79 80 83 85 86 87 85 83 85 87 88 91 94
97 99 100 101 102 102 101 101 101 101 101 101 100 100 101 101 101 101 101 101 101 101 100 100 100 100 101 101 100 100 100 100 99 98 98 97 96 96 97 95 88 81 79 81 85 89 91 91 90 91 90 89 87 86 84 85 87 86 84 83 84 85 86 85 82 81 82 83 84 84 82 81 79 79 82 86 88 89 88 87 87 87 87 90 94
95 97 98 99 100 100 100 100 100 100 101 101 101 100 100 101 101 101 100 100 100 100 100 100 100 99 100 100 100 100 100 100 100 100 100 99 99 98 99 98 95 87 80 80 84 88 91 93 93 93 93 91 90 89 87 85 87 89 89 85 83 84 88 91 88 83 80 82 85 87 86 87 86 84 84 87 90 89 88 90 91 91 90 88 89
86 86 87 89 90 90 90 90 91 92 93 93 94 94 94 94 94 94 94 94 94 94 94 95 95 96 97 97 98 99 99 99 99 100 99 99 99 99 100 100 100 95 88 84 85 87 89 91 91 91 90 89 88 89 89 87 88 92 93 89 85 85 89 94 94 88 84 83 85 88 91 94 96 94 92 93 95 93 89 87 86 88 90 90 90
78 79 80 81 81 81 81 80 80 82 84 84 85 86 87 88 88 88 88 88 88 88 87 86 86 86 87 87 88 89 91 93 95 97 98 99 98 98 99 99 100 99 96 94 93 92 91 91 90 88 87 85 86 87 87 87 91 96 96 92 88 89 93 96 94 90 89 87 85 88 93 96 97 98 97 97 97 96 94 91 89 88 89 91 92
80 82 82 82 82 82 82 82 82 85 88 89 90 90 90 91 91 91 91 90 90 90 88 85 82 80 79 78 78 77 77 78 81 85 89 92 95 97 98 99 100 100 100 100 99 98 97 98 97 95 91 88 86 86 87 90 96 100 99 96 93 94 97 98 94 89 89 90 88 88 92 95 95 95 95 96 95 94 93 94 95 94 93 93 95
83 84 84 86 88 90 90 92 93 95 97 97 97 98 98 96 96 95 94 95 94 93 92 90 87 84 81 79 78 77 75 72 70 71 73 76 79 82 86 90 93 95 98 100 100 99 99 99 99 99 98 96 94 92 92 95 98 100 100 100 97 96 97 97 95 91 89 91 92 92 92 93 93 93 93 93 92 91 91 92 93 93 94 95 95
83 85 88 92 95 96 98 100 100 100 101 100 100 100 99 98 97 96 96 96 96 96 95 94 91 88 84 81 80 80 79 77 75 73 71 70 70 71 72 75 79 81 83 87 90 93 97 100 102 102 100 100 100 99 98 98 98 99 100 99 97 96 97 97 97 95 92 92 94 95 94 92 90 90 91 91 89 89 90 89 89 90 91 92 92
84 88 92 96 98 99 101 102 101 100 99 99 99 98 97 97 96 96 96 98 98 98 98 96 94 92 90 87 84 80 78 78 78 79 78 75 74 72 71 72 75 77 78 78 79 81 84 89 95 99 101 101 101 100 99 99 98 97 96 96 97 97 98 98 98 98 96 95 96 96 95 94 91 89 89 90 91 92 92 90 90 90 91 89 89
82 86 92 96 98 99 99 99 99 99 98 99 99 97 96 96 96 96 98 99 100 100 99 97 96 95 95 95 92 88 84 80 78 79 78 77 77 77 76 75 77 79 81 82 82 81 81 82 83 87 91 96 99 101 101 101 100 98 97 98 100 100 99 98 99 98 97 97 98 97 95 93 92 91 89 88 89 92 93 93 92 92 92 90 89
79 85 91 96 98 97 96 96 97 97 97 98 97 95 93 93 93 95 98 99 99 98 96 96 97 97 97 97 97 96 93 88 84 81 77 75 77 80 82 83 83 84 86 86 85 84 84 84 84 84 85 86 88 91 93 94 94 94 93 94 96 98 97 96 97 99 99 98 98 97 95 91 89 88 88 87 87 88 90 91 92 92 91 90 89
82 86 91 95 97 97 96 96 96 97 96 94 93 92 89 89 90 93 96 98 99 99 97 96 95 96 98 99 99 98 95 92 88 84 79 78 80 82 86 88 89 89 91 91 90 87 85 84 84 85 85 85 84 83 81 81 81 81 81 82 84 88 90 91 94 98 99 100 98 96 93 90 87 85 85 85 85 86 86 86 87 87 85 84 85
86 88 90 93 95 95 95 93 92 93 93 92 91 91 89 89 89 91 93 95 96 97 98 97 95 95 96 99 99 98 95 93 91 88 86 86 87 91 94 96 96 94 94 95 96 95 91 87 85 87 90 89 88 85 83 81 79 78 80 81 81 82 83 85 88 90 92 95 96 95 93 91 89 87 86 85 85 86 86 85 84 82 80 79 78
88 88 90 92 92 92 92 91 90 90 91 91 91 91 91 91 90 91 91 91 91 92 94 95 95 94 95 98 98 96 95 92 89 87 86 87 91 94 97 98 98 96 96 98 100 100 97 92 89 92 97 97 94 90 88 85 82 83 86 87 86 85 84 83 84 86 88 90 92 93 94 93 91 89 88 87 87 86 85 84 83 81 80 79 77
87 89 90 90 90 90 92 92 92 92 91 90 90 89 88 88 88 90 90 88 88 90 93 95 97 95 94 95 95 93 91 89 87 87 89 91 94 95 95 95 96 96 96 97 98 98 97 94 91 92 95 98 99 96 92 88 85 87 90 91 90 90 89 87 86 87 90 92 93 94 94 93 91 89 88 88 87 86 85 85 85 84 83 81 80
81 84 87 89 89 89 90 91 90 90 88 86 85 85 85 86 87 87 87 86 87 89 91 93 96 97 96 93 92 90 89 89 90 93 96 98 96 94 92 94 95 96 97 97 96 93 92 92 92 92 91 92 94 95 93 91 89 89 91 92 93 94 94 93 91 89 90 91 92 93 93 93 93 90 88 88 87 86 86 87 87 87 86 83 81
75 78 81 82 84 86 87 87 86 85 83 82 81 82 84 84 84 84 84 83 84 86 88 89 91 95 96 95 93 93 93 93 95 98 99 98 96 94 94 94 95 97 98 98 97 96 94 91 89 89 88 87 87 88 89 91 92 92 92 93 95 96 97 97 96 95 94 93 91 90 89 91 91 89 87 88 88 87 87 88 89 89 87 85 84
74 76 76 77 78 81 83 83 83 82 82 81 82 83 83 82 79 77 78 80 81 84 86 87 88 89 92 93 94 95 95 96 97 99 99 97 96 95 95 95 96 97 98 98 98 98 98 97 95 93 92 90 88 87 87 87 87 88 89 92 95 96 97 98 98 97 97 96 94 92 90 89 88 86 85 85 85 85 86 87 88 88 88 88 89
75 77 77 77 77 79 81 81 81 82 83 83 84 85 86 85 81 75 74 76 79 82 84 86 86 86 87 89 91 93 96 97 97 97 98 97 97 97 96 95 96 97 97 98 99 98 99 100 100 98 98 98 97 96 96 94 94 94 94 96 97 98 99 99 99 99 98 98 98 98 97 96 95 94 93 91 88 87 86 86 87 88 89 89 89
76 78 81 82 81 81 81 81 82 84 85 86 85 85 86 86 85 81 77 75 75 78 81 84 87 85 84 87 88 90 94 96 96 96 97 96 96 97 97 96 96 97 97 98 99 99 100 101 98 96 98 100 100 100 100 100 100 100 100 100 100 100 100 100 100 100 100 100 100 101 101 101 102 100 99 98 96 93 90 90 90 90 87 86 86
77 78 81 84 85 85 84 83 83 85 87 86 85 85 85 83 82 82 81 77 75 75 77 82 87 87 85 85 86 88 92 94 95 96 97 96 96 99 98 96 95 96 97 99 100 99 99 97 94 93 97 101 101 99 99 100 100 100 101 101 101 100 100 100 100 99 98 99 100 101 102 103 102 101 100 99 98 97 95 93 91 89 86 84 84
85 82 81 82 84 86 87 86 85 85 86 86 85 85 84 81 79 80 80 78 76 76 75 81 88 90 88 86 85 86 89 92 95 99 98 96 97 98 97 95 95 96 97 99 101 100 98 96 94 95 99 101 100 99 100 99 99 100 100 100 100 100 99 99 99 98 97 98 99 101 103 104 103 102 101 100 100 99 98 97 94 91 87 85 83
94 92 90 88 86 85 85 85 84 84 84 85 85 84 83 80 79 80 79 77 77 77 79 84 89 92 92 90 87 86 86 89 94 100 99 96 96 95 94 95 98 98 98 99 100 99 98 98 97 98 99 99 97 97 99 98 98 98 99 98 98 98 97 96 97 97 97 98 99 100 102 102 103 102 101 100 100 100 100 99 97 95 91 88 85
97 98 98 97 95 92 88 85 84 84 83 82 82 82 82 80 80 80 79 78 78 80 86 91 94 94 94 92 89 87 87 88 94 100 98 93 92 91 90 92 95 95 96 99 100 99 99 99 98 98 98 98 97 96 97 99 99 99 99 98 98 97 96 96 97 98 98 99 98 98 99 100 100 100 99 99 100 100 100 99 99 98 97 94 92
98 99 99 99 99 99 97 94 92 89 87 86 84 84 83 82 80 80 80 79 80 87 95 99 98 97 97 94 89 87 86 85 89 95 94 91 89 87 86 87 89 89 90 92 95 97 98 99 99 98 97 98 98 98 99 100 100 99 98 98 98 98 98 98 99 99 99 98 98 97 98 99 99 99 99 99 100 100 100 100 100 99 98 97 95
99 101 101 100 99 99 99 100 99 98 97 97 95 93 91 87 85 84 82 81 86 95 100 101 100 100 99 94 88 85 84 83 87 92 93 91 89 86 85 86 87 87 86 86 87 91 93 94 96 97 96 96 97 98 99 100 100 99 98 98 98 99 99 99 100 100 99 99 99 98 98 99 100 100 100 100 100 100 100 99 98 97 96 94 93
98 100 101 102 102 101 100 101 101 101 102 102 100 99 98 95 92 89 84 84 92 100 101 100 101 101 98 93 87 83 83 85 88 92 93 91 89 86 85 86 88 87 86 85 85 87 88 89 91 93 94 93 93 94 96 98 98 98 99 99 100 99 99 98 99 99 99 100 100 100 100 101 100 100 100 100 99 99 97 96 95 94 92 90 88
94 96 98 99 101 102 102 103 103 102 102 101 100 100 100 99 97 91 86 88 97 102 100 100 101 100 96 92 86 83 84 86 88 90 90 90 90 88 87 88 89 87 86 85 85 85 86 87 89 91 92 93 92 91 92 96 99 99 100 99 99 98 97 96 96 97 97 99 100 100 100 100 100 99 98 97 96 94 92 90 89 87 84 82 80
94 94 95 95 96 98 99 102 104 103 102 102 102 100 99 99 97 91 88 92 100 102 100 100 101 100 97 93 87 83 84 85 87 88 89 89 89 87 87 88 89 87 85 84 84 84 84 85 88 90 93 94 93 89 88 91 96 99 101 101 100 99 98 97 97 98 99 100 100 100 99 97 95 93 91 89 88 86 84 82 80 78 76 75 73
95 95 95 95 94 93 94 96 100 102 102 103 103 101 99 99 96 90 89 95 101 102 101 100 100 100 100 97 92 87 84 84 86 87 88 88 88 87 87 88 88 86 84 83 82 83 84 86 90 94 96 98 97 92 87 89 93 96 99 100 100 100 99 97 96 96 96 95 93 91 88 86 84 82 81 79 78 76 75 74 74 73 73 72 71
97 97 97 97 96 95 92 92 95 98 100 102 104 103 101 100 95 89 90 97 100 100 101 101 100 100 101 100 97 93 89 86 86 85 86 88 87 86 86 87 86 84 82 81 81 84 88 91 96 99 100 102 99 93 88 89 91 92 93 94 94 93 92 90 88 86 84 83 81 80 79 77 77 76 75 75 74 75 74 74 73 71 70 68 66
99 100 99 99 99 98 96 93 92 95 98 100 102 103 103 100 93 89 93 97 98 97 99 100 100 100 100 101 100 99 95 92 89 86 85 86 86 84 85 84 83 82 83 84 87 91 96 98 100 100 101 102 100 93 88 87 88 87 86 86 86 85 84 82 81 80 79 78 78 77 76 76 75 74 74 72 71 69 66 63 60 57 54 50 48
99 101 102 101 100 100 99 96 93 94 97 98 99 101 101 97 91 90 95 97 95 94 95 96 97 98 99 99 100 101 100 98 95 92 90 88 85 84 84 84 85 87 91 94 97 99 100 101 101 100 101 102 99 91 85 84 85 84 82 82 81 79 78 78 77 76 75 74 74 73 71 68 66 63 59 56 53 49 47 44 42 40 39 38 38
95 98 100 102 101 100 100 99 96 95 96 97 99 101 99 92 88 91 95 95 94 94 94 93 94 95 96 97 99 100 100 100 100 99 98 96 94 93 93 93 94 95 96 97 99 100 101 101 102 101 101 101 96 89 84 82 81 80 77 75 74 72 71 71 71 69 68 66 63 59 55 52 48 45 42 40 39 38 38 38 38 38 39 40 41
91 95 98 100 101 100 99 99 96 94 95 96 99 101 98 91 87 91 95 95 93 94 93 92 93 93 93 94 96 97 99 100 101 101 101 102 101 101 99 98 97 95 93 92 93 94 94 96 97 96 95 93 89 83 78 76 75 73 72 71 70 68 66 64 62 58 55 51 48 45 42 40 39 38 38 38 39 39 40 40 41 41 41 41 40
85 92 95 98 99 99 99 100 99 96 94 95 98 100 97 91 89 92 95 94 94 94 94 92 93 92 92 92 93 94 95 97 97 97 98 98 98 97 94 92 91 90 87 84 83 82 81 81 82 81 80 79 77 75 73 72 71 70 69 67 63 60 56 53 50 47 44 42 41 40 40 39 40 41 41 41 41 41 40 40 39 38 37 37 36
76 84 91 96 99 100 100 101 101 99 97 96 98 100 98 93 91 93 95 95 94 95 94 93 93 92 92 92 92 92 92 93 93 92 92 91 89 88 86 83 82 81 79 76 75 75 74 74 74 74 74 74 73 72 70 68 66 63 61 57 54 51 49 47 45 44 43 42 42 42 42 43 43 43 41 40 39 37 36 36 35 35 35 35 36
67 74 81 88 95 99 101 102 102 101 99 97 97 99 99 96 93 95 97 96 95 95 95 94 94 93 92 92 92 91 92 91 90 89 88 85 83 81 80 80 79 78 78 78 77 76 75 74 73 73 72 71 70 68 65 63 60 56 54 51 49 48 48 47 46 45 45 45 44 44 43 43 41 39 37 35 35 34 34 34 34 34 34 34 34